Temp
11 11 11 11 11 11 10 10 9 9 9 9 8 8 8 7 7 7 6 6 6 5 5 5 5 5 5 5 5 5 5 5
11 11 11 11 11 11 10 10 9 9 9 9 9 8 8 8 7 7 6 6 6 6 5 5 5 5 5 5 5 5 5 5
10 10 10 10 10 10 10 10 9 9 9 9 9 9 9 8 7 7 7 6 6 6 5 5 5 5 5 5 5 5 5 5
10 10 10 10 10 10 10 10 9 9 10 9 9 9 8 8 8 7 7 7 6 6 6 5 5 5 5 4 5 5 4 4
6 9 9 9 9 10 10 10 10 9 9 10 9 9 8 8 8 8 7 7 6 6 6 5 5 5 5 4 4 4 5 4
6 6 7 8 9 9 10 10 10 10 10 9 9 9 9 8 8 8 7 7 6 6 6 6 5 5 5 4 5 5 4 4
5 5 5 7 7 6 9 10 10 9 9 9 9 9 8 8 8 8 8 7 7 7 6 6 5 5 5 5 5 5 4 5
6 5 5 5 7 7 7 7 10 9 9 9 9 9 8 8 8 8 8 8 7 7 7 7 6 6 6 5 5 5 4 4
6 5 5 4 6 7 6 8 9 9 10 9 9 9 8 8 8 8 8 8 8 7 7 7 6 6 6 6 5 5 4 4
3 4 5 4 4 5 7 7 8 9 9 9 9 8 8 8 8 8 7 7 7 7 7 7 7 7 7 6 6 5 5 5
5 4 4 4 4 6 6 6 7 8 9 9 8 8 8 8 8 7 7 7 7 7 7 7 7 7 7 6 6 6 5 5
4 6 5 5 4 5 6 6 6 7 8 9 8 8 8 8 8 7 7 7 7 7 7 7 7 7 7 7 6 6 6 6
-1 2 6 5 5 4 6 6 6 7 8 8 8 8 8 7 8 7 7 7 7 7 7 6 6 6 6 6 6 6 6 6
1 -0 1 3 3 3 4 6 6 6 7 8 8 8 8 7 7 8 7 7 7 7 7 6 6 6 6 6 6 6 6 6
1 1 0 1 1 3 3 6 6 6 6 8 8 7 7 7 7 7 7 7 6 7 6 6 6 6 6 6 6 6 6 6
-1 0 -0 -0 1 2 2 4 5 5 6 8 8 7 7 8 7 7 7 7 7 6 6 6 6 6 6 6 5 5 5 5
-1 -1 -0 -1 0 1 2 2 5 5 5 6 8 7 7 7 7 7 6 7 6 6 6 6 6 6 6 5 5 5 5 5
-4 -2 -1 -1 0 2 2 2 3 4 4 6 6 7 7 7 7 6 6 6 6 6 6 6 5 5 5 5 5 5 5 4
-4 -4 -2 -2 -1 0 1 1 2 3 5 4 5 5 5 4 5 6 5 5 5 6 6 6 6 5 5 5 4 5 4 3
-3 -3 -4 -3 -2 -0 0 1 1 3 3 4 3 4 3 6 5 4 5 6 5 5 6 6 6 5 5 5 5 4 4 4
Height
3135 3136 3138 3139 3140 3141 3142 3143 3145 3145 3145 3146 3146 3147 3147 3148 3149 3151 3151 3152 3154 3154 3156 3156 3157 3158 3159 3159 3159 3159 3159 3157
3132 3134 3135 3136 3137 3139 3140 3141 3142 3143 3143 3144 3145 3145 3145 3146 3147 3148 3149 3150 3152 3153 3154 3155 3156 3157 3158 3159 3159 3158 3158 3157
3129 3131 3133 3134 3135 3136 3137 3138 3139 3140 3140 3141 3142 3143 3144 3144 3145 3147 3147 3148 3149 3150 3152 3153 3155 3156 3157 3158 3157 3157 3156 3157
3126 3127 3128 3130 3130 3132 3133 3134 3134 3136 3137 3138 3139 3140 3141 3142 3143 3144 3145 3146 3146 3148 3149 3151 3152 3154 3155 3155 3155 3156 3156 3155
3122 3122 3123 3124 3126 3127 3129 3130 3131 3132 3133 3135 3136 3137 3138 3139 3140 3142 3142 3144 3144 3145 3147 3149 3150 3151 3152 3153 3153 3154 3152 3153
3120 3117 3118 3119 3121 3121 3124 3125 3126 3128 3130 3132 3133 3134 3135 3137 3138 3139 3140 3141 3142 3143 3145 3146 3147 3148 3149 3150 3151 3152 3150 3152
3112 3114 3112 3114 3115 3118 3117 3119 3120 3123 3125 3127 3128 3130 3131 3133 3134 3135 3136 3138 3139 3141 3142 3143 3144 3145 3146 3147 3149 3150 3149 3150
3104 3106 3108 3107 3109 3113 3114 3115 3114 3117 3119 3122 3124 3125 3127 3128 3129 3131 3132 3134 3135 3137 3138 3140 3141 3142 3143 3144 3145 3146 3147 3147
3095 3098 3101 3101 3102 3104 3107 3109 3108 3109 3113 3116 3119 3120 3122 3123 3125 3127 3128 3130 3131 3132 3134 3135 3137 3138 3139 3141 3142 3142 3143 3144
3082 3086 3090 3092 3090 3094 3096 3099 3100 3102 3106 3110 3112 3116 3117 3119 3122 3124 3126 3127 3129 3130 3130 3131 3133 3134 3136 3137 3138 3139 3139 3140
3064 3069 3070 3072 3076 3079 3084 3088 3092 3094 3099 3103 3107 3110 3113 3114 3117 3120 3122 3123 3126 3128 3129 3129 3130 3130 3132 3133 3134 3136 3136 3136
3055 3055 3058 3062 3065 3067 3072 3077 3082 3086 3089 3094 3100 3104 3107 3109 3112 3115 3117 3119 3121 3123 3126 3128 3128 3127 3127 3129 3130 3132 3133 3133
3045 3046 3043 3046 3052 3054 3061 3067 3072 3076 3079 3086 3091 3097 3101 3102 3106 3110 3111 3115 3117 3119 3121 3123 3125 3125 3124 3124 3125 3127 3129 3130
3029 3032 3035 3041 3041 3042 3044 3051 3059 3066 3070 3076 3083 3085 3092 3096 3099 3104 3106 3109 3111 3114 3116 3117 3119 3121 3122 3121 3121 3123 3124 3125
3015 3016 3019 3024 3030 3031 3032 3038 3044 3051 3058 3064 3069 3072 3082 3088 3091 3093 3098 3101 3104 3109 3111 3112 3113 3115 3117 3119 3117 3118 3118 3120
3003 3003 3003 3009 3016 3015 3019 3026 3032 3040 3047 3051 3057 3063 3068 3075 3079 3084 3088 3092 3096 3100 3104 3107 3108 3109 3111 3113 3113 3113 3113 3113
2992 2992 2992 2994 3002 3003 3005 3013 3021 3028 3034 3039 3045 3053 3062 3066 3072 3078 3083 3087 3089 3090 3095 3099 3102 3103 3103 3107 3109 3108 3107 3107
2983 2982 2983 2985 2988 2990 2996 3002 3009 3019 3027 3030 3028 3038 3050 3057 3065 3067 3075 3084 3085 3085 3085 3092 3094 3096 3095 3099 3102 3103 3103 3100
2979 2977 2975 2976 2979 2981 2986 2993 2998 3006 3012 3015 2969 3016 3038 3043 3047 3052 3064 3072 3079 3077 3078 3083 3086 3087 3087 3090 3094 3095 3095 3094
2976 2974 2970 2970 2972 2974 2979 2987 2992 2999 2987 3001 3004 3014 3023 3002 2982 3035 3050 3061 3070 3071 3073 3072 3078 3079 3080 3079 3083 3085 3086 3085
Wind_Speed
18 24 23 21 19 17 17 15 15 14 12 11 10 10 9 8 7 7 7 8 8 8 7 7 7 6 5 5 3 6 8 8
19 23 24 23 20 19 19 18 17 16 15 14 13 12 11 10 10 9 9 9 9 9 8 8 8 7 6 6 7 8 9 12
23 24 25 24 22 21 21 20 20 19 18 17 16 14 12 11 10 10 10 10 10 10 10 9 9 8 7 7 8 7 11 7
27 27 29 28 27 25 24 24 23 22 20 18 17 16 14 13 12 12 12 11 10 10 10 10 10 9 8 8 9 8 10 8
19 29 30 33 31 30 28 28 25 24 22 20 19 18 17 16 14 13 11 11 12 10 9 10 10 11 10 10 10 9 8 11
11 22 31 30 33 35 32 31 29 27 25 22 22 21 19 17 15 13 12 12 12 11 11 11 11 12 10 11 10 7 8 10
22 17 25 27 37 34 35 35 33 30 29 26 24 23 21 18 17 16 13 13 13 11 12 12 11 12 12 10 13 12 14 12
32 27 24 31 31 41 37 39 35 33 32 29 28 25 23 22 20 17 15 13 13 12 11 9 11 11 11 13 13 13 14 12
34 33 29 28 40 35 43 42 42 37 34 32 30 28 27 25 22 19 16 14 14 12 11 9 10 9 10 11 11 13 14 16
28 31 33 31 35 40 39 49 46 43 39 36 34 31 29 28 25 22 18 17 15 14 12 10 9 10 9 11 12 14 15 16
41 38 41 43 41 39 42 45 49 50 43 40 37 34 33 32 28 24 21 19 15 14 14 12 11 11 11 11 13 14 14 15
48 47 49 49 46 48 43 44 49 49 50 46 39 38 36 34 31 27 24 21 19 18 16 15 14 13 14 14 13 14 13 14
49 48 57 56 52 50 49 46 45 49 55 49 44 41 40 39 34 30 29 26 24 21 20 19 18 17 18 17 15 15 14 14
52 51 52 54 49 51 55 53 45 45 52 53 49 46 44 41 38 35 33 30 29 27 26 24 23 22 21 20 20 19 18 17
47 49 52 49 55 55 55 60 52 47 52 57 55 51 46 43 41 40 37 35 33 31 29 28 27 25 25 24 24 23 24 22
45 47 49 45 46 62 55 58 48 53 55 59 58 53 48 47 46 44 42 39 36 34 33 30 29 27 28 28 27 27 26 28
32 38 42 39 40 58 63 59 61 50 53 57 62 56 50 52 47 44 42 38 34 34 32 30 29 28 29 29 29 29 30 31
25 27 32 30 35 46 65 59 60 50 48 52 65 57 52 54 50 42 38 35 33 31 32 32 29 29 31 32 33 36 34 35
25 25 27 28 31 38 54 61 57 50 50 58 55 45 47 42 57 44 37 35 34 34 35 35 34 34 34 34 35 33 32 33
24 23 22 24 26 32 37 49 60 62 47 73 46 45 52 71 12 39 34 35 35 34 35 35 38 38 39 37 38 37 35 35
Wind_Direction
216 213 214 219 225 229 233 233 234 234 229 228 224 224 219 217 215 215 213 215 217 218 228 233 237 237 247 245 255 279 289 279
219 220 220 223 230 236 236 235 234 231 230 228 231 228 223 219 220 216 219 217 216 221 228 232 234 242 244 253 269 275 276 283
232 224 230 231 232 238 241 240 237 234 232 229 228 231 230 227 220 223 220 220 220 222 229 236 240 239 246 266 278 278 279 304
241 238 232 235 235 236 238 238 236 236 236 234 232 232 229 225 223 223 228 224 223 228 229 237 244 241 245 260 275 283 253 270
288 248 240 237 238 236 238 240 239 237 234 232 230 229 226 230 225 228 228 233 231 228 236 238 244 244 244 246 257 274 298 296
217 280 255 250 241 240 237 239 238 235 232 231 232 230 226 229 227 227 227 231 228 227 231 238 238 252 252 244 267 262 249 276
224 238 271 243 247 241 245 236 235 235 232 228 227 230 226 226 229 226 227 223 231 225 229 236 235 249 260 263 253 265 269 274
237 226 234 247 246 248 238 246 238 234 234 228 227 226 226 223 226 226 224 227 225 230 235 237 243 242 252 252 262 266 263 261
244 236 229 248 244 239 249 237 244 237 232 231 226 227 225 223 225 224 224 223 225 229 233 237 250 258 259 257 259 267 273 273
253 234 228 234 249 249 236 243 240 240 236 233 227 226 227 226 223 223 220 223 224 228 229 238 249 263 271 270 268 264 269 273
235 228 221 218 234 243 241 236 241 242 238 232 231 226 227 228 224 223 223 226 228 233 238 240 245 257 265 271 271 273 271 276
255 233 226 223 223 238 238 239 239 238 239 233 228 228 227 228 229 227 226 229 233 236 243 246 249 255 265 268 272 280 284 284
261 254 233 224 219 229 234 237 239 236 238 238 234 227 226 229 230 226 232 233 237 236 241 244 250 253 258 265 272 275 280 284
265 261 254 232 219 223 229 227 238 237 236 238 236 233 225 227 233 230 233 236 239 240 241 243 247 251 256 259 263 269 270 277
259 265 259 251 229 220 227 229 227 234 232 234 234 234 228 225 232 236 233 234 240 247 247 248 251 253 256 260 261 265 267 266
256 257 259 256 250 225 221 220 224 229 229 232 233 232 230 226 227 235 239 238 241 247 251 251 252 256 259 262 262 267 270 274
261 254 255 262 249 238 223 219 220 229 227 233 232 231 230 231 229 233 240 243 240 240 244 249 254 257 259 261 262 261 267 269
286 257 257 256 233 238 231 223 219 228 223 228 232 229 227 232 230 228 234 240 238 241 243 248 253 257 258 259 262 269 270 266
297 276 256 252 236 234 231 229 225 222 218 228 186 215 224 232 228 216 223 232 241 244 252 254 258 260 262 262 262 270 266 261
295 279 267 258 249 228 229 235 230 223 235 235 235 221 218 229 152 199 219 231 240 247 253 262 265 263 264 265 266 267 268 267